Location: Castiglione Fibocchi
(43.5333°N, 11.7667°E)
Time: 16:46:28
(UTC+00:00)

Cosmos 1048 Rocket - Pass Details

Date: 15 August 2020
Orbit: 743 x 791 km, 74.0° (Epoch: 17 September)

Event Time Altitude Azimuth Distance (km) Brightness Sun altitude
Rises 01:50:11 0° 339° (NNW) 3,202 7.6 -22.8°
Reaches altitude 10° 01:52:32 10° 340° (NNW) 2,278 6.8 -22.5°
Maximum altitude 01:57:43 87° 68° (ENE) 762 3.9 -21.9°
Enters shadow 02:01:18 21° 159° (SSE) 1,676 5.5 -21.4°
